Timestamp,Net Demand,Generation,Import,Solar,Wind,STOR,Other
2024-04-19T20:35:00,158.44,38.74,119.70,0.00,0.00,0.00,38.74
2024-04-19T20:40:00,158.5,38.36,120.14,0.00,0.00,0.00,38.36
2024-04-19T20:45:00,158.7,38.89,119.81,0.00,0.00,0.00,38.89
2024-04-19T20:50:00,159.27,38.81,120.46,0.00,0.00,0.00,38.81
2024-04-19T20:55:00,159.75,38.69,121.06,0.00,0.00,0.00,38.69
2024-04-19T21:00:00,159.92,39.23,120.69,0.00,0.00,0.00,39.23
2024-04-19T21:05:00,159.06,38.55,120.51,0.00,0.00,0.00,38.55
2024-04-19T21:10:00,156.58,34.33,122.25,0.00,0.00,0.00,34.33
2024-04-19T21:15:00,156.73,34.31,122.42,0.00,0.00,0.00,34.31
2024-04-19T21:20:00,156.33,35.67,120.66,0.00,0.00,0.00,35.67
2024-04-19T21:25:00,156.08,35.58,120.50,0.00,0.00,0.00,35.58
2024-04-19T21:30:00,156.08,34.82,121.26,0.00,0.00,0.00,34.82
2024-04-19T21:35:00,155.32,35.05,120.27,0.00,0.00,0.00,35.05
2024-04-19T21:40:00,153.96,35.04,118.92,0.00,0.00,0.00,35.04
2024-04-19T21:45:00,154.02,35.41,118.61,0.00,0.00,0.00,35.41
2024-04-19T21:50:00,153.18,35.12,118.06,0.00,0.00,0.00,35.12
2024-04-19T21:55:00,152.54,35.23,117.31,0.00,0.00,0.00,35.23
2024-04-19T22:00:00,144.35,34.54,109.81,0.00,0.00,0.00,34.54
2024-04-19T22:05:00,143.27,33.49,109.78,0.00,0.00,0.00,33.49
2024-04-19T22:10:00,142.92,34.1,108.82,0.00,0.00,0.00,34.10
2024-04-19T22:15:00,143.34,34.78,108.56,0.00,0.00,0.00,34.78
2024-04-19T22:20:00,142.83,34.74,108.09,0.00,0.00,0.00,34.74
2024-04-19T22:25:00,142.52,34.93,107.59,0.00,0.00,0.00,34.93
2024-04-19T22:30:00,142.2,35.24,106.96,0.00,0.00,0.00,35.24
2024-04-19T22:35:00,140.73,35.53,105.20,0.00,0.00,0.00,35.53
2024-04-19T22:40:00,140.05,35.41,104.64,0.00,0.00,0.00,35.41
2024-04-19T22:45:00,139.78,34.84,104.94,0.00,0.00,0.00,34.84
2024-04-19T22:50:00,137.72,35.13,102.59,0.00,0.00,0.00,35.13
2024-04-19T22:55:00,129.54,35.44,94.10,0.00,0.00,0.00,35.44
2024-04-19T23:00:00,128.61,35.42,93.19,0.00,0.00,0.00,35.42
2024-04-19T23:05:00,127.01,35.82,91.19,0.00,0.00,0.00,35.82
2024-04-19T23:10:00,126.19,35.52,90.67,0.00,0.00,0.00,35.52
2024-04-19T23:15:00,124.83,35.38,89.45,0.00,0.00,0.00,35.38
2024-04-19T23:20:00,123.6,35.27,88.33,0.00,0.00,0.00,35.27
2024-04-19T23:25:00,122.08,33.57,88.51,0.00,0.00,0.00,33.57
2024-04-19T23:30:00,120.23,30.69,89.54,0.00,0.00,0.00,30.69
2024-04-19T23:35:00,119.73,29.47,90.26,0.00,0.00,0.00,29.47
2024-04-19T23:40:00,119.89,29.9,89.99,0.00,0.00,0.00,29.90
2024-04-19T23:45:00,119.95,30.28,89.67,0.00,0.00,0.00,30.28
2024-04-19T23:50:00,119.37,30.33,89.04,0.00,0.00,0.00,30.33
2024-04-19T23:55:00,119.39,30.97,88.42,0.00,0.00,0.00,30.97
2024-04-20T00:00:00,119.82,31.67,88.15,0.00,0.00,0.00,31.67
2024-04-20T00:05:00,119.23,31.74,87.49,0.00,0.00,0.00,31.74
2024-04-20T00:10:00,118.72,31.3,87.42,0.00,0.00,0.00,31.30
2024-04-20T00:15:00,118.3,31.08,87.22,0.00,0.00,0.00,31.08
2024-04-20T00:20:00,118,31.17,86.83,0.00,0.00,0.00,31.17
2024-04-20T00:25:00,117.67,30.94,86.73,0.00,0.00,0.00,30.94
2024-04-20T00:30:00,118.1,31.55,86.55,0.00,0.00,0.00,31.55
2024-04-20T00:35:00,119.07,32.59,86.48,0.00,0.00,0.00,32.59
2024-04-20T00:40:00,119.11,33.22,85.89,0.00,0.00,0.00,33.22
2024-04-20T00:45:00,118.98,33.54,85.44,0.00,0.00,0.00,33.54
2024-04-20T00:50:00,118.11,33.06,85.05,0.00,0.00,0.00,33.06
2024-04-20T00:55:00,117.82,33.1,84.72,0.00,0.00,0.00,33.10
2024-04-20T01:00:00,116.65,33.15,83.50,0.00,0.00,0.00,33.15
2024-04-20T01:05:00,118.52,34.25,84.27,0.00,0.00,0.00,34.25
2024-04-20T01:10:00,119.45,35.2,84.25,0.00,0.00,0.00,35.20
2024-04-20T01:15:00,119.28,35.25,84.03,0.00,0.00,0.00,35.25
2024-04-20T01:20:00,117.77,34.31,83.46,0.00,0.00,0.00,34.31
2024-04-20T01:25:00,117.37,34.46,82.91,0.00,0.00,0.00,34.46
2024-04-20T01:30:00,117.44,34.1,83.34,0.00,0.00,0.00,34.10
2024-04-20T01:35:00,117.11,34.53,82.58,0.00,0.00,0.00,34.53
2024-04-20T01:40:00,118.13,35.68,82.45,0.00,0.00,0.00,35.68
2024-04-20T01:45:00,116.48,35.67,80.81,0.00,0.00,0.00,35.67
2024-04-20T01:50:00,116.24,35.23,81.01,0.00,0.00,0.00,35.23
2024-04-20T01:55:00,115.7,34.69,81.01,0.00,0.00,0.00,34.69
2024-04-20T02:00:00,115.63,34.52,81.11,0.00,0.00,0.00,34.52
2024-04-20T02:05:00,115.1,33.75,81.35,0.00,0.00,0.00,33.75
2024-04-20T02:10:00,115.02,34.14,80.88,0.00,0.00,0.00,34.14
2024-04-20T02:15:00,115.86,35.53,80.33,0.00,0.00,0.00,35.53
2024-04-20T02:20:00,116,35.31,80.69,0.00,0.00,0.00,35.31
2024-04-20T02:25:00,116.2,35.02,81.18,0.00,0.00,0.00,35.02
2024-04-20T02:30:00,116.35,35.48,80.87,0.00,0.00,0.00,35.48
